FW9082 Weather Reports


time (UTC)temp
F
wind
direction
speed
knots
gust
knots
rain 1hr
in
rain 24hr
in
rain mn
in
humidity
%
barometer
mb
20260504081534 44 0 0.0 0.0 0.00 0.00 0.00 86 1015.6
20260504044533 46 0 0.0 0.9 0.00 0.00 0.00 73 1015.7
20260504043032 45 0 0.0 0.0 0.00 0.00 0.00 74 1015.5
20260504041532 45 0 0.0 0.0 0.00 0.00 0.00 73 1015.4
20260504040033 45 0 0.0 0.9 0.00 0.00 0.00 74 1015.3
20260504034533 45 0 0.0 0.0 0.00 0.00 0.00 73 1015.2
20260504033038 44 0 0.0 0.0 0.00 0.00 0.00 74 1014.9
20260504031533 44 0 0.0 0.0 0.00 0.00 0.00 71 1015.0
20260504030032 45 0 0.0 0.0 0.00 0.00 0.00 70 1014.8
20260504024532 45 0 0.0 0.0 0.00 0.00 0.00 70 1014.8
20260504023031 46 0 0.0 0.0 0.00 0.00 0.00 68 1014.9
20260504021534 45 0 0.0 0.9 0.00 0.00 0.00 70 1014.9
20260504020032 46 0 0.0 0.0 0.00 0.00 0.00 67 1014.9
20260504014545 46 0 0.0 0.0 0.00 0.00 0.00 66 1014.9
20260504013034 47 0 0.0 0.0 0.00 0.00 0.00 65 1014.8
20260504011530 48 0 0.0 0.0 0.00 0.00 0.00 63 1014.6
20260504010028 48 0 0.0 0.0 0.00 0.00 0.00 62 1014.5
20260504004533 49 0 0.0 0.0 0.00 0.00 0.00 60 1014.4
20260504003032 51 0 0.0 0.0 0.00 0.00 0.00 56 1014.3
20260504001537 53 0 0.0 0.0 0.00 0.00 0.00 52 1014.2
20260504000039 54 0 0.0 0.0 0.00 0.00 0.00 50 1014.0
20260503234532 55 0 0.0 0.0 0.00 0.00 0.00 50 1013.8
20260503233032 56 0 0.0 0.0 0.00 0.00 0.00 46 1013.7
20260503231541 58 252 0.0 1.7 0.00 0.00 0.00 43 1013.6
20260503230033 59 0 0.0 2.6 0.00 0.00 0.00 41 1013.7
20260503224536 60 13 0.9 3.5 0.00 0.00 0.00 38 1013.6
20260503223031 61 219 0.9 6.1 0.00 0.00 0.00 38 1013.6
20260503221537 61 348 0.9 7.0 0.00 0.00 0.00 37 1013.6
20260503220032 62 191 0.9 8.7 0.00 0.00 0.00 35 1013.6
20260503214533 62 111 0.9 9.6 0.00 0.00 0.00 38 1013.6
20260503213034 62 292 1.7 5.2 0.00 0.00 0.00 36 1013.5
20260503211532 62 31 1.7 7.0 0.00 0.00 0.00 40 1013.5
20260503210044 62 248 2.6 7.8 0.00 0.00 0.00 36 1013.5
20260503204532 61 243 1.7 7.0 0.00 0.00 0.00 38 1013.5
20260503203031 61 66 2.6 9.6 0.00 0.00 0.00 38 1013.7
20260503201534 61 248 1.7 6.1 0.00 0.00 0.00 39 1013.9
20260503200040 61 11 2.6 7.8 0.00 0.00 0.00 37 1014.0
20260503194534 61 291 1.7 6.1 0.00 0.00 0.00 39 1014.1
20260503193032 61 211 1.7 8.7 0.00 0.00 0.00 37 1014.2
20260503191531 60 147 4.3 12.2 0.00 0.00 0.00 37 1014.3
20260503190037 60 60 2.6 11.3 0.00 0.00 0.00 43 1014.5
20260503184531 60 50 2.6 7.0 0.00 0.00 0.00 42 1014.7
20260503183034 60 44 1.7 12.2 0.00 0.00 0.00 43 1014.7
20260503181534 60 350 2.6 7.8 0.00 0.00 0.00 43 1014.9
20260503180031 59 27 0.9 9.6 0.00 0.00 0.00 42 1015.0
20260503174531 58 238 3.5 11.3 0.00 0.00 0.00 42 1015.1
20260503173036 57 295 2.6 10.4 0.00 0.00 0.00 42 1015.3
20260503171535 58 51 2.6 7.8 0.00 0.00 0.00 46 1015.2